Location: Capannuccia
(43.7000°N, 11.3000°E)
Time: 12:46:53
(UTC+00:00)

SL-4 R/B - Pass Details

Date: 07 June 2020
Orbit: 428 x 666 km, 51.6° (Epoch: 16 July)

Event Time Altitude Azimuth Distance (km) Brightness Sun altitude
Rises 01:08:40 0° 301° (WNW) 3,007 5.8 -18.5°
Reaches altitude 10° 01:11:03 10° 302° (WNW) 2,087 5.0 -18.3°
Maximum altitude 01:15:54 87° 31° (NNE) 657 2.3 -17.8°
Drops below altitude 10° 01:20:34 10° 122° (ESE) 2,003 4.9 -17.4°
Sets 01:22:48 0° 123° (ESE) 2,876 5.7 -17.2°
